Weather in Kenilworth

United Kingdom     52°20′20″N   1°34′30″W
temp.,
°C
wind,
m/s
gust,
m/s
humid.,
%
clouds,
%
prec.,
mm/h
press.,
hPa
HPBL,
m
2 march, tue
tue200:00+1e23960 0.0 103183
03:000ene33950 0.0 103072
06:000ene33960 0.0 103089
09:00+3ene24861 0.0 1031245
12:00+8ene23700 0.0 1030444
15:00+10ene34720 0.0 1029606
18:00+6e23900 0.0 102925
21:00+4ene23940 0.0 102928
3 march, wed
wed300:00+3e129432 0.0 102922
03:00+3ene1294100 0.0 102822
06:00+3e129497 0.0 102822
09:00+5e238894 0.0 1028155
12:00+10ese237880 0.1 1027461
15:00+8s119596 0.9 102529
18:00+6nne119694 1.1 102522
21:00+6ne2396100 0.0 102445
4 march, thu
thu400:00+5ne4794100 0.0 1024317
03:00+4ne5893100 0.1 1024441
06:00+3nne5888100 0.1 1024616
09:00+3nne5783100 0.0 1026749
12:00+4nne4677100 0.1 1026892
15:00+5ne4774100 0.1 10261079
18:00+5nne3784100 0.1 1027369
21:00+3ne597797 0.0 1028768
5 march, fri
fri500:00+2ne487394 0.0 1029871
03:00+2ne487288 0.0 1030727
06:00+2ne486994 0.0 1031866
09:00+3ne5766100 0.0 10321085
12:00+5ene566299 0.0 10321136
15:00+5ne456388 0.0 10321226
18:00+3ene356794 0.0 1033310
21:00+3ene2670100 0.0 1035294
6 march, sat
sat600:00−1ene238567 0.0 103641
03:00−1ne12860 0.0 103522
06:00−1ne12850 0.0 103623
09:00+2ene23690 0.0 1036321
12:00+5ese235618 0.0 10351054
15:00+6ese22560 0.0 10341057
18:00+2se12750 0.0 103322
21:000sse12800 0.0 103322